Regional Weather Roundup
Issued by NWS

Home | Current Version | Previous Version | Graphics & Text | Print | Product List | Glossary On
Versions: 1 2 3 4 5 6 7 8 9 10 11 12 13 14 15 16 17 18 19 20 21 22 23 24 25 26 27 28 29 30 31 32 33 34 35 36 37 38 39 40 41 42 43 44 45 46 47 48 49 50
000
ASUS43 KIND 281009
RWRIN

WEATHER ROUNDUP FOR INDIANA
NATIONAL WEATHER SERVICE INDIANAPOLIS IN
500 AM EST SAT FEB 28 2015

NOTE: "FAIR" INDICATES FEW OR NO CLOUDS BELOW 12,000 FEET WITH NO
SIGNIFICANT WEATHER AND/OR OBSTRUCTIONS TO VISIBILITY.

* - STATION DOES NOT REPORT WEATHER SUCH AS PRECIPITATION OR FOG.

+ - STATION NOT QUALITY CONTROLLED BY THE NATIONAL WEATHER SERVICE.
    USE DATA WITH CAUTION...ESPECIALLY DEWPOINT AND RELATIVE
    HUMIDITY OBSERVATIONS.

INZ001>003-010>013-019-020-281100-
NORTHWEST INDIANA

CITY           SKY/WX    TMP DP  RH WIND       PRES   REMARKS
KNOX *+          N/A     -8 -22  49 CALM      30.68S
LA PORTE +     PTCLDY    -8 -13  78 CALM      30.68R
MICHIGAN CITY+ PTCLDY    -8 -15  71 CALM      30.69R
MONTICELLO +   PTCLDY    -1  -5  86 CALM      30.68S
RENSSELAER +   PTCLDY     0  -4  85 CALM      30.69R
VALPARAISO     PTCLDY    -9 -13  83 CALM      30.67S

$$

LMZ046-743>745-281100-
SOUTHERN LAKE MICHIGAN

STATION/POSITION TIME  TEMP WIND        PRES
                       AIR  DIR/SP/G
                 (UTC) (F)  (DEG/KT/KT) (MB)
MICHIGAN CITY    1000    2  140/  4/  5   N/A

$$

INZ004-005-014>016-021>024-281100-
NORTH CENTRAL INDIANA

CITY           SKY/WX    TMP DP  RH WIND       PRES   REMARKS
GOSHEN         MOCLDY    -8 -15  71 CALM      30.67S HAZE
LOGANSPORT +   PTCLDY     0  -4  85 CALM      30.69R
PERU/GRISSOM   MOCLDY     1  -4  81 SE5       30.67R WCI  -9
ROCHESTER +    PTCLDY     1  -4  78 CALM      30.68S
SOUTH BEND     MOCLDY    -6 -12  75 CALM      30.67S
WARSAW +       PTCLDY    -6  -9  84 CALM      30.67S

$$

INZ006>009-017-018-025>027-281100-
NORTHEAST INDIANA

CITY           SKY/WX    TMP DP  RH WIND       PRES   REMARKS
ANGOLA *+      CLEAR     -9 -15  77 CALM      30.66R
AUBURN +       PTCLDY    -4  -9  77 CALM      30.68S
FORT WAYNE     MOCLDY     0  -4  83 CALM      30.69R
HUNTINGTON +   PTCLDY     0  -6  75 CALM      30.68S

$$

INZ028-029-035-036-043>045-051>053-281100-
WEST CENTRAL INDIANA

CITY           SKY/WX    TMP DP  RH WIND       PRES   REMARKS
CRAWFORDSVL +  PTCLDY     1  -8  67 NE5       30.66S WCI  -9
GREENCASTLE +  PTCLDY     7  -4  61 E3        30.64F
LAFAYETTE      PTCLDY     3  -2  79 NE3       30.68S
TERRE HAUTE    CLOUDY     9   0  67 NE3       30.66F

$$

INZ030>032-037>040-046>048-054>057-064-065-281100-
CENTRAL INDIANA

CITY           SKY/WX    TMP DP  RH WIND       PRES   REMARKS
CP ATTERBURY + PTCLDY     3   0  85 CALM      30.67R
FRANKFORT +    PTCLDY     1  -3  80 NE3       30.67S
GREENWOOD *+   PTCLDY     9  -2  61 E3        30.66S
INDIANAPOLIS   MOCLDY     9   1  70 NE6       30.65S WCI  -1
-EAGLE CREEK   PTCLDY     8   0  69 NE5       30.65S WCI   0
KOKOMO *+      PTCLDY     0  -6  78 CALM      30.68R
MARION +       PTCLDY     0  -4  81 CALM      30.68S
MT COMFORT *+  PTCLDY     1  -8  66 NE3       30.65F
SHELBYVILLE    PTCLDY     5  -3  69 E7        30.65F WCI  -7
ZIONSVILLE +   MOCLDY     3  -4  72 CALM      30.66S

$$

INZ033-034-041-042-049-050-058-059-281100-
EAST CENTRAL INDIANA

CITY           SKY/WX    TMP DP  RH WIND       PRES   REMARKS
MUNCIE         PTCLDY    -2  -7  79 E3        30.66F

$$

INZ060-061-067>069-081>083-085>088-281100-
SOUTHWEST INDIANA

CITY           SKY/WX    TMP DP  RH WIND       PRES   REMARKS
EVANSVILLE     MOCLDY    19   8  62 NE7       30.65R WCI  10
HUNTINGBURG *+ PTCLDY    18   3  53 NE7       30.64R WCI   8
WASHINGTON +   CLOUDY    16   1  53 E5        30.65R WCI   8

$$

INZ062-063-066-070>080-084-089>092-281100-
SOUTH CENTRAL AND SOUTHEAST INDIANA

CITY           SKY/WX    TMP DP  RH WIND       PRES   REMARKS
BLOOMINGTON    PTCLDY    10   0  63 E5        30.63S WCI   2
NORTH VERNON + PTCLDY     9   0  66 E6        30.65F WCI  -1
SEYMOUR +      PTCLDY     9   0  66 CALM      30.67S

$$




USA.gov is the U.S. government's official web portal to all federal, state and local government web resources and services.